Weather in Novyy Port

Russia / Yamalo-Nenets Autonomous Okrug     67°41′37″N   72°53′48″E
temp.,
°C
wind,
m/s
gust,
m/s
humid.,
%
clouds,
%
prec.,
mm/h
press.,
hPa
HPBL,
m
27 february, sat
sat2723:00−24wnw119992 0.1 102220
02:00−26wnw1110078 0.0 102120
05:00−27wsw1110053 0.0 102220
08:00−26s0110063 0.0 102219
11:00−25s229955 0.0 102219
14:00−24sse239920 0.0 102326
17:00−26s3410037 0.0 102321
20:00−25sse4510085 0.0 102390
28 february, sun
sun2823:00−27s4610081 0.0 102388
02:00−26s4610081 0.0 1022116
05:00−25s589990 0.0 1022189
08:00−26s69100100 0.0 1022167
11:00−25s6109998 0.0 1022246
14:00−24s61010098 0.0 1022265
17:00−25s6910099 0.0 1022175
20:00−25s61110090 0.0 1021198
1 march, mon
mon123:00−24s7119995 0.0 1021228
02:00−24s71198100 0.0 1019246
05:00−24ssw71297100 0.0 1019297
08:00−24ssw81297100 0.0 1017307
11:00−23ssw91395100 0.0 1016381
14:00−22ssw91492100 0.0 1015427
17:00−22ssw91491100 0.0 1014410
20:00−22ssw8149499 0.0 1012372
2 march, tue
tue223:00−23s9149598 0.0 1011327
02:00−23s10159599 0.0 1009320
05:00−23s101692100 0.0 1008336
08:00−22s111790100 0.0 1007382
11:00−20s111885100 0.0 1007444
14:00−19s111785100 0.0 1007516
17:00−18s111786100 0.0 1007509
20:00−18s111785100 0.0 1006498
3 march, wed
wed323:00−19s111788100 0.0 1007446
02:00−20s101691100 0.0 1007415
05:00−21s91593100 0.0 1007388
08:00−21s101595100 0.0 1006410
11:00−19s101593100 0.0 1007467
14:00−18s101592100 0.0 1007517
17:00−18s101593100 0.1 1007521
20:00−18s101593100 0.1 1006500